Regional Weather Roundup
Issued by NWS

Home | Current Version | Previous Version | Graphics & Text | Print | Product List | Glossary On
Versions: 1 2 3 4 5 6 7 8 9 10 11 12 13 14 15 16 17 18 19 20 21 22 23 24 25 26 27 28 29 30 31 32 33 34 35 36 37 38 39 40 41 42 43 44 45 46 47 48 49 50
000
ASUS43 KLOT 020406
RWRIL

ILLINOIS REGIONAL WEATHER ROUNDUP
NATIONAL WEATHER SERVICE CHICAGO/ROMEOVILLE IL
1000 PM CST SUN MAR 01 2015

NOTE: "FAIR" INDICATES FEW OR NO CLOUDS BELOW 12,000 FEET WITH NO
SIGNIFICANT WEATHER AND/OR OBSTRUCTIONS TO VISIBILITY.

* THESE STATIONS ARE NOT UNDER NWS QUALITY CONTROL. THEY ALSO MAY NOT
  REPORT WEATHER SUCH AS PRECIPITATION OR FOG.

ILZ001-002-007-009-015-016-024-020500-
NORTHWEST ILLINOIS

CITY           SKY/WX    TMP DP  RH WIND       PRES   REMARKS
MOLINE         PTCLDY    15   7  70 W5        30.41R WCI   8
STERLING*      CLEAR     14   9  79 W7        30.39R WCI   4
SAVANNA*       CLEAR     19  10  69 W3        30.39S
$$

ILZ003-004-008-010-011-017-018-020500-
NORTH CENTRAL ILLINOIS

CITY           SKY/WX    TMP DP  RH WIND       PRES   REMARKS
ROCKFORD       CLEAR     18   8  65 W9        30.37R WCI   7
FREEPORT*      CLEAR     15   8  71 W6        30.37R WCI   7
ROCHELLE*      CLEAR     14   8  76 W8        30.37R WCI   3
DE KALB*       CLEAR     16  10  75 W14       30.35R WCI   2
PERU*          PTCLDY    19  14  78 W10       30.40R WCI   8
$$

ILZ005-006-012>014-019>023-020500-
NORTHEAST ILLINOIS

CITY           SKY/WX    TMP DP  RH WIND       PRES   REMARKS
CHICAGO-OHARE  CLEAR     19  13  77 W13       30.32R WCI   6
CHICAGO-MIDWAY CLEAR     22  15  75 W14       30.34R WCI   9
AURORA         CLEAR     15   9  76 W13       30.36R WCI   1
LANSING*       PTCLDY    19  13  79 SW7       30.34R WCI  10
JOLIET*        CLEAR     16  11  82 W8        30.38R WCI   5
WAUKEGAN       CLEAR     20  11  68 W10G21    30.29R WCI   9
DUPAGE AIRPORT CLEAR     18  12  77 W14       30.33R WCI   4
KANKAKEE*      MOCLDY    17  13  84 W14       30.38R WCI   3
WHEELING       CLEAR     21  12  68 W17G23    30.33R WCI   7
MORRIS*        CLEAR     16  13  87 W12       30.37R WCI   3
ROMEOVILLE*    CLEAR     17  12  82 W12       30.36R WCI   4
NORTHERLY ISL    N/A     23  15  71 SW10        N/A  WCI  13
$$

LMZ740>746-020500-
SOUTHERN LAKE MICHIGAN

STATION/POSITION SKY/WX   TEMP    WIND        PRES    VSBY  WAVE
                          AIR SEA DIR/SP/G                  HT/PER
                          (F)     (DEG/KT/KT) (MB)    (MI)  (FT/S)
WAUKEGAN HARBOR            22     280/ 12/ 22   N/A
HARRISON CRIB              23     270/ 21/ 25   N/A
BURNHAM HARBOR             22     270/  8/ 14   N/A
CALUMET HARBOR                    230/  7/ 11 1025.6R
MICHIGAN CITY              18     210/ 12/ 15   N/A
$$

ILZ025>027-034>036-040-047-049-050-058-095>099-020500-
WEST-CENTRAL ILLINOIS

CITY           SKY/WX    TMP DP  RH WIND       PRES   REMARKS
QUINCY         PTCLDY    23  17  78 W3        30.45R
GALESBURG*     MOCLDY    14  11  90 W5        30.42S WCI   6
MACOMB*        CLOUDY    18  15  87 W6        30.47R WCI  10
JACKSONVILLE*  PTCLDY    20  16  84 W5        30.46R WCI  13
PITTSFIELD*    PTCLDY    19  16  88 W3        30.47R
$$

ILZ028>032-037-038-041>044-048-051>054-059>061-020500-
CENTRAL ILLINOIS

CITY           SKY/WX    TMP DP  RH WIND       PRES   REMARKS
PONTIAC        MOCLDY    19  15  83 W13       30.41R WCI   6
BLOOMINGTON    MOCLDY    22  17  81 W12       30.42R WCI  11
DECATUR        MOCLDY    23  16  74 NW8       30.44R WCI  14
PEORIA         MOCLDY    22  15  75 W7        30.44R WCI  13
LACON*         PTCLDY    20  14  77 W3        30.42R
LINCOLN*       MOCLDY    23  18  80 W5        30.46R WCI  17
SPRINGFIELD    MOCLDY    19  14  81 W5        30.45R WCI  12
TAYLORVILLE    MOCLDY    21  18  86 NW6       30.45R WCI  14
$$

ILZ033-039-045-046-055>057-062-063-020500-
EAST-CENTRAL ILLINOIS

CITY           SKY/WX    TMP DP  RH WIND       PRES   REMARKS
CHAMPAIGN      MOCLDY    15  12  88 W8        30.42R WCI   4
DANVILLE*      MOCLDY    18  16  93 W7        30.38R WCI   8
RANTOUL*       MOCLDY    16  14  90 W8        30.41R WCI   5
MATTOON        PTCLDY    21  17  84 NW12      30.42R WCI   9
PARIS*         MOCLDY    21  19  91 NW9       30.43R WCI  10
$$

ILZ079-100>102-020500-
SOUTHWEST ILLINOIS

CITY           SKY/WX    TMP DP  RH WIND       PRES   REMARKS
ALTON          PTCLDY    20  18  88 W3        30.47R
BELLEVILLE     PTCLDY    19  19 100 NW3       30.47R FOG
CAHOKIA*       FAIR      22  20  92 W3        30.48R
SPARTA*        MOCLDY    27  23  85 NW5       30.48R WCI  22
$$

ILZ064>066-069>071-074>076-080>082-084>086-088>090-092>094-020500-
SOUTH-CENTRAL ILLINOIS

CITY           SKY/WX    TMP DP  RH WIND       PRES   REMARKS
CARBONDALE     CLOUDY    31  24  75 NW7       30.46R WCI  24
CAIRO*         CLOUDY    36  30  79 N10       30.44R WCI  28
EFFINGHAM*     MOCLDY    24  18  80 W5        30.46R WCI  18
MARION         CLOUDY    32  27  80 N6        30.46R WCI  26
MT. VERNON     PTCLDY    27  19  74 CALM      30.47R
CENTRALIA*     PTCLDY    23  21  92 NW3       30.46R
SALEM*         PTCLDY    25  22  87 CALM      30.46R
METROPOLIS*    CLOUDY    33  30  89 NW9       30.42R WCI  25
$$

ILZ067-068-072-073-078-083-087-091-020500-
SOUTHEAST ILLINOIS

CITY           SKY/WX    TMP DP  RH WIND       PRES   REMARKS
LAWRENCEVILLE  CLOUDY    28  23  81 NW12      30.44R WCI  18
FLORA*         PTCLDY    25  22  89 NW6       30.46R WCI  18
FAIRFIELD*     PTCLDY    27  22  80 NW3       30.45R
HARRISBURG*    PTCLDY    31  26  84 NW5       30.47R WCI  26
ROBINSON*      PTCLDY    26  24  90 NW6       30.45R WCI  20
CARMI*         CLEAR     31  29  89 NW10      30.45R WCI  23
$$

ABBREVIATIONS USED IN REMARKS
   TC - TEMPERATURE IN CELSIUS
  WCI - WIND CHILL INDEX
   HX - HEAT INDEX
  VSB - VISIBILITY
$$



USA.gov is the U.S. government's official web portal to all federal, state and local government web resources and services.